• In Czech Republic
  • List of Countries
  • For 7 days
  • Water Temperature
  • Satellite Maps
  • Weather Map
  • Weather Widgets
  • user-avatar
    Login

    Hourly Weather Canberra

    Today, 29 June, Thursday

    Time Temperature Precipitation Wind Pressure Humidity
    00:00 +2°C° 0 mm 1 mps 712 mmHg 93%
    01:00 +2°C° 0 mm 1 mps 711 mmHg 92%
    02:00 +1°C° 0 mm 1 mps 711 mmHg 92%
    03:00 +1°C° 0 mm 1 mps 711 mmHg 92%
    04:00 0°C° 0 mm 1 mps 711 mmHg 92%
    05:00 0°C° 0 mm 1 mps 711 mmHg 92%
    06:00 0°C° 0 mm 1 mps 711 mmHg 92%
    07:00 0°C° 0 mm 1 mps 711 mmHg 92%
    08:00 +3°C° 0 mm 1 mps 711 mmHg 81%
    09:00 +6°C° 0 mm 1 mps 712 mmHg 70%
    10:00 +9°C° 0 mm 1 mps 712 mmHg 59%
    11:00 +9°C° 0 mm 2 mps 712 mmHg 54%
    12:00 +12°C° 0 mm 2 mps 711 mmHg 49%
    13:00 +12°C° 0 mm 3 mps 711 mmHg 44%
    14:00 +11°C° 0 mm 3 mps 711 mmHg 48%
    15:00 +11°C° 0 mm 3 mps 710 mmHg 51%
    16:00 +10°C° 0 mm 3 mps 710 mmHg 55%
    17:00 +8°C° 0 mm 3 mps 710 mmHg 63%
    18:00 +7°C° 0 mm 3 mps 711 mmHg 72%
    19:00 +5°C° 0 mm 2 mps 711 mmHg 80%
    20:00 +5°C° 0 mm 2 mps 711 mmHg 84%
    21:00 +4°C° 0 mm 2 mps 712 mmHg 87%
    22:00 +4°C° 0 mm 2 mps 712 mmHg 90%
    23:00 +4°C° 0 mm 2 mps 712 mmHg 91%

    Tomorrow, 30 June, Friday

    Time Temperature Precipitation Wind Pressure Humidity
    00:00 +3°C° 0 mm 2 mps 712 mmHg 92%
    01:00 +3°C° 0 mm 2 mps 712 mmHg 93%
    02:00 +2°C° 0 mm 2 mps 712 mmHg 94%
    03:00 +2°C° 0 mm 2 mps 712 mmHg 95%
    04:00 +2°C° 0 mm 1 mps 712 mmHg 96%
    05:00 +1°C° 0 mm 1 mps 713 mmHg 95%
    06:00 +1°C° 0 mm 1 mps 713 mmHg 94%
    07:00 0°C° 0 mm 1 mps 714 mmHg 93%
    08:00 +1°C° 0 mm 2 mps 714 mmHg 80%
    09:00 +3°C° 0 mm 2 mps 715 mmHg 67%
    10:00 +5°C° 0 mm 3 mps 716 mmHg 53%
    11:00 +7°C° 0 mm 3 mps 716 mmHg 48%
    12:00 +8°C° 0 mm 3 mps 716 mmHg 43%
    13:00 +9°C° 0 mm 3 mps 716 mmHg 39%
    14:00 +9°C° 0 mm 3 mps 716 mmHg 41%
    15:00 +8°C° 0 mm 2 mps 716 mmHg 44%
    16:00 +8°C° 0 mm 2 mps 716 mmHg 46%
    17:00 +5°C° 0 mm 2 mps 716 mmHg 56%
    18:00 +3°C° 0 mm 2 mps 716 mmHg 65%
    19:00 -1°C° 0 mm 2 mps 716 mmHg 75%
    20:00 -1°C° 0 mm 2 mps 717 mmHg 78%
    21:00 -1°C° 0 mm 2 mps 717 mmHg 80%
    22:00 -2°C° 0 mm 2 mps 718 mmHg 82%
    23:00 -2°C° 0 mm 2 mps 717 mmHg 84%

    Day after tomorrow, 1 July, Saturday

    Time Temperature Precipitation Wind Pressure Humidity
    00:00 -2°C° 0 mm 2 mps 717 mmHg 86%
    01:00 0°C° 0 mm 1 mps 717 mmHg 88%
    02:00 0°C° 0 mm 1 mps 717 mmHg 88%
    03:00 0°C° 0 mm 1 mps 717 mmHg 89%
    04:00 -1°C° 0 mm 1 mps 717 mmHg 89%
    05:00 -1°C° 0 mm 1 mps 717 mmHg 89%
    06:00 -1°C° 0 mm 1 mps 717 mmHg 89%
    07:00 -1°C° 0 mm 1 mps 718 mmHg 89%
    08:00 +2°C° 0 mm 1 mps 718 mmHg 75%
    09:00 +5°C° 0 mm 1 mps 719 mmHg 61%
    10:00 +8°C° 0 mm 0 mps 719 mmHg 46%
    11:00 +9°C° 0 mm 0 mps 719 mmHg 42%
    12:00 +10°C° 0 mm 0 mps 718 mmHg 38%
    13:00 +12°C° 0 mm 0 mps 717 mmHg 33%
    14:00 +12°C° 0 mm 1 mps 717 mmHg 39%
    15:00 +11°C° 0 mm 1 mps 717 mmHg 44%
    16:00 +10°C° 0 mm 1 mps 716 mmHg 49%
    17:00 +6°C° 0 mm 1 mps 716 mmHg 62%
    18:00 +3°C° 0 mm 1 mps 716 mmHg 75%
    19:00 -1°C° 0 mm 1 mps 715 mmHg 88%
    20:00 -2°C° 0 mm 0 mps 715 mmHg 89%
    21:00 -3°C° 0 mm 0 mps 715 mmHg 90%
    22:00 -3°C° 0 mm 0 mps 715 mmHg 92%
    23:00 -3°C° 0 mm 0 mps 715 mmHg 91%

    2 July, Sunday

    Time Temperature Precipitation Wind Pressure Humidity
    00:00 -3°C° 0 mm 0 mps 715 mmHg 91%
    01:00 -2°C° 0 mm 1 mps 715 mmHg 90%
    02:00 -2°C° 0 mm 1 mps 714 mmHg 90%
    03:00 -2°C° 0 mm 1 mps 714 mmHg 90%
    04:00 -2°C° 0 mm 1 mps 714 mmHg 89%
    05:00 -2°C° 0 mm 1 mps 714 mmHg 88%
    06:00 -2°C° 0 mm 1 mps 714 mmHg 87%
    07:00 -2°C° 0 mm 1 mps 714 mmHg 87%
    08:00 +2°C° 0 mm 1 mps 715 mmHg 70%
    09:00 +6°C° 0 mm 1 mps 715 mmHg 54%
    10:00 +9°C° 0 mm 1 mps 716 mmHg 38%
    11:00 +10°C° 0 mm 2 mps 715 mmHg 35%
    12:00 +12°C° 0 mm 2 mps 715 mmHg 31%
    13:00 +13°C° 0 mm 2 mps 714 mmHg 28%
    14:00 +13°C° 0 mm 2 mps 713 mmHg 32%
    15:00 +12°C° 0 mm 2 mps 713 mmHg 37%
    16:00 +11°C° 0 mm 1 mps 712 mmHg 42%
    17:00 +8°C° 0 mm 1 mps 712 mmHg 55%
    18:00 +4°C° 0 mm 1 mps 712 mmHg 68%
    19:00 +1°C° 0 mm 1 mps 712 mmHg 80%
    20:00 +1°C° 0 mm 1 mps 712 mmHg 81%
    21:00 +1°C° 0 mm 1 mps 712 mmHg 82%
    22:00 +1°C° 0 mm 1 mps 712 mmHg 82%
    23:00 +1°C° 0 mm 1 mps 711 mmHg 84%

    3 July, Monday

    Time Temperature Precipitation Wind Pressure Humidity
    00:00 +1°C° 0 mm 1 mps 711 mmHg 85%
    01:00 +1°C° 0 mm 1 mps 711 mmHg 86%
    02:00 +2°C° 0 mm 1 mps 710 mmHg 87%
    03:00 +3°C° 0 mm 1 mps 710 mmHg 89%
    04:00 +3°C° 0 mm 2 mps 710 mmHg 90%
    05:00 +3°C° 0 mm 2 mps 710 mmHg 91%
    06:00 +4°C° 0 mm 2 mps 710 mmHg 92%
    07:00 +4°C° 0 mm 2 mps 710 mmHg 93%
    08:00 +6°C° 0 mm 2 mps 710 mmHg 90%
    09:00 +7°C° 0 mm 3 mps 710 mmHg 87%
    10:00 +9°C° 0 mm 3 mps 710 mmHg 84%
    11:00 +10°C° 0 mm 4 mps 709 mmHg 81%
    12:00 +11°C° 0 mm 4 mps 708 mmHg 79%
    13:00 +12°C° 0 mm 4 mps 708 mmHg 76%
    14:00 +12°C° 0 mm 4 mps 707 mmHg 75%
    15:00 +12°C° 0 mm 4 mps 707 mmHg 75%
    16:00 +12°C° 0 mm 4 mps 706 mmHg 75%
    17:00 +11°C° 0.3 mm 4 mps 706 mmHg 81%
    18:00 +10°C° 0.3 mm 4 mps 706 mmHg 87%
    19:00 +8°C° 0.3 mm 4 mps 706 mmHg 93%
    20:00 +8°C° 0.7 mm 4 mps 706 mmHg 93%
    21:00 +8°C° 0.7 mm 4 mps 706 mmHg 92%
    22:00 +8°C° 0.7 mm 4 mps 706 mmHg 92%
    23:00 +6°C° 0.1 mm 4 mps 706 mmHg 91%

    4 July, Tuesday

    Time Temperature Precipitation Wind Pressure Humidity
    00:00 +5°C° 0.1 mm 3 mps 705 mmHg 90%
    01:00 +4°C° 0.1 mm 3 mps 705 mmHg 89%
    02:00 +3°C° 0 mm 3 mps 705 mmHg 88%
    03:00 +2°C° 0 mm 3 mps 705 mmHg 87%
    04:00 +2°C° 0 mm 3 mps 705 mmHg 87%
    05:00 +1°C° 0 mm 3 mps 705 mmHg 86%
    06:00 +1°C° 0 mm 3 mps 705 mmHg 85%
    07:00 +1°C° 0 mm 3 mps 705 mmHg 85%
    08:00 +2°C° 0 mm 3 mps 706 mmHg 80%
    09:00 +4°C° 0 mm 4 mps 706 mmHg 75%
    10:00 +5°C° 0 mm 4 mps 706 mmHg 70%
    11:00 +6°C° 0 mm 5 mps 706 mmHg 68%
    12:00 +7°C° 0 mm 5 mps 705 mmHg 65%
    13:00 +8°C° 0 mm 5 mps 705 mmHg 63%
    14:00 +7°C° 0 mm 5 mps 705 mmHg 66%
    15:00 +7°C° 0 mm 5 mps 705 mmHg 69%
    16:00 +6°C° 0 mm 4 mps 705 mmHg 73%
    17:00 +6°C° 0 mm 4 mps 706 mmHg 77%
    18:00 +6°C° 0 mm 4 mps 706 mmHg 80%
    19:00 +5°C° 0 mm 3 mps 707 mmHg 84%
    20:00 +5°C° 0.1 mm 3 mps 707 mmHg 86%
    21:00 +5°C° 0.1 mm 3 mps 707 mmHg 88%
    22:00 +5°C° 0.1 mm 3 mps 708 mmHg 91%
    23:00 +5°C° 0 mm 3 mps 708 mmHg 90%
    Show more